Wind_Speed
7 10 12 11 9 8 5 5 4 1 1 0 2 4 6 8 6 5 4 2 3 2 0 2 2 3 7 10 12 12 13 14 15 15 14 14 14 13 13 12 10 9 8 8 8 7 5 3 2 4 6 9 12 13 12 10 8 6 4 3 2 2 2 2 2 4 4 3 2 2 2 2 2 2 2 3 3 5 5 5 6 7 7 7 8 8
8 11 9 5 5 6 4 4 6 4 2 2 4 6 7 8 7 6 4 4 5 5 3 1 1 3 9 10 11 12 12 13 13 14 13 13 14 13 12 10 9 9 8 7 6 5 4 3 2 4 6 10 12 12 11 10 7 4 2 1 1 0 1 1 2 4 5 5 3 3 3 2 2 2 2 3 4 5 5 5 6 7 7 7 8 9
9 9 3 2 2 7 7 6 8 5 3 4 6 8 11 11 9 8 6 6 8 7 5 4 3 5 9 10 10 10 10 11 11 12 12 11 12 13 12 10 9 7 6 6 5 4 5 4 1 3 6 9 11 11 10 8 5 2 1 0 1 1 2 1 2 4 5 6 5 4 4 3 3 3 3 4 4 5 5 6 7 7 8 9 11 12
9 4 3 3 4 9 10 9 8 7 5 3 6 10 12 13 11 10 11 11 9 7 5 6 7 7 9 10 11 10 10 11 11 12 12 11 11 10 10 9 9 5 4 6 5 6 5 2 1 3 6 9 10 10 9 7 3 0 2 2 2 2 3 3 3 4 6 7 7 6 5 4 3 3 3 4 5 5 7 8 8 9 10 12 14 15
8 4 4 2 8 10 12 11 7 6 7 5 5 7 8 11 9 8 13 13 9 7 5 6 7 7 9 11 12 13 12 12 12 12 13 13 13 12 11 10 9 6 3 4 5 6 4 1 1 3 6 8 9 9 8 5 1 2 3 4 4 4 5 6 6 6 6 7 7 7 5 4 3 3 3 4 6 7 7 8 9 11 13 14 15 15
7 3 6 3 11 12 12 10 4 6 9 8 8 6 3 7 9 10 13 13 10 8 9 9 5 4 9 12 12 14 15 15 14 14 14 14 15 15 13 11 11 8 5 5 4 4 2 1 1 3 6 7 8 7 5 2 1 3 5 6 6 7 8 8 8 6 6 7 7 6 5 4 4 4 5 5 7 8 8 10 12 14 14 15 15 16
8 5 8 2 13 11 7 6 5 7 10 8 9 8 3 3 8 11 12 11 9 7 8 12 7 4 9 13 14 15 16 16 16 16 16 16 16 15 13 12 12 9 7 5 3 3 2 2 2 3 5 6 6 4 1 1 3 5 7 8 9 9 9 9 9 7 7 7 7 6 6 6 7 6 6 7 8 10 11 13 14 15 15 15 16 17
6 6 4 2 10 7 6 8 6 8 9 8 8 8 5 3 5 9 11 10 7 4 5 12 11 6 9 12 14 16 17 17 19 19 18 18 17 15 13 14 13 10 8 7 3 3 4 2 2 3 5 6 5 2 1 3 4 7 9 10 11 11 10 10 9 8 8 8 7 7 7 8 9 9 9 10 10 12 14 15 15 16 16 17 18 19
2 4 4 5 5 6 8 6 5 9 8 6 6 6 5 3 5 6 8 10 7 5 6 12 14 7 7 9 11 16 19 19 21 21 20 19 18 17 15 15 15 11 9 7 4 4 5 3 2 2 4 5 4 2 2 4 6 9 11 12 12 11 10 10 9 9 9 10 10 10 9 10 11 11 12 12 12 13 16 17 16 16 17 17 18 19
3 4 4 4 4 6 8 5 8 11 6 6 9 8 8 7 7 6 5 9 7 5 8 12 15 9 6 9 13 17 19 20 22 21 19 19 17 17 17 16 16 13 11 9 6 6 6 4 2 2 3 4 3 2 3 5 8 11 11 11 11 11 11 10 10 10 10 11 11 11 12 12 12 12 12 12 14 15 17 16 16 17 17 18 19 19
4 4 3 3 3 5 9 7 10 11 5 8 13 13 12 9 8 7 5 6 5 4 8 9 15 12 4 8 15 17 12 10 16 19 19 20 18 18 17 17 16 14 12 11 8 7 8 6 3 2 2 3 2 3 3 5 9 11 11 11 11 11 11 10 11 10 11 12 12 13 13 13 12 12 12 13 15 15 16 17 17 17 18 18 19 19
3 4 4 3 2 6 11 8 9 10 5 8 13 14 13 9 7 6 5 5 3 4 6 8 14 14 8 9 11 11 6 4 11 15 15 18 19 19 19 18 16 15 14 12 10 9 8 6 4 3 2 2 1 2 3 5 9 10 10 11 10 10 10 10 11 12 13 12 12 13 14 13 12 12 13 14 14 15 17 18 18 18 18 19 19 19
5 6 5 2 3 9 11 10 14 13 7 7 11 12 10 6 4 3 2 2 3 5 5 8 12 13 15 15 12 13 11 8 11 10 9 10 13 16 18 18 17 16 15 12 10 8 6 5 5 4 3 2 2 3 3 5 8 10 10 10 10 10 11 11 12 13 13 13 13 14 14 14 13 13 13 14 14 15 17 19 18 18 19 19 19 19
7 8 8 5 4 9 10 9 15 15 11 9 8 9 8 4 3 2 2 1 3 5 4 7 10 9 14 14 11 11 11 9 10 9 8 7 7 9 13 17 18 17 14 10 8 8 6 6 5 4 3 3 4 4 4 5 7 9 10 10 10 11 12 12 12 14 14 13 14 14 13 13 13 13 13 13 14 15 17 18 18 18 18 18 19 20
4 6 10 10 7 9 8 6 9 10 10 10 8 8 9 7 4 3 3 2 2 3 5 8 6 5 8 6 4 3 6 9 9 8 7 9 9 8 10 16 17 14 12 8 7 8 7 6 6 5 4 4 4 5 5 6 7 9 10 10 11 12 12 11 12 13 14 13 13 13 13 12 12 13 14 14 15 16 17 18 17 17 18 18 20 21
4 5 8 10 9 10 9 6 7 7 7 8 8 7 8 7 5 3 2 4 5 6 5 8 6 6 6 2 1 3 6 9 9 7 8 11 14 14 12 16 16 12 10 6 6 8 9 9 8 6 4 5 5 6 6 6 7 9 10 10 11 12 12 11 11 11 12 13 12 12 12 11 12 13 15 15 15 16 17 17 16 16 17 18 20 21
5 5 6 11 10 9 10 9 7 5 5 7 7 7 6 4 4 3 2 2 4 4 4 9 8 7 6 5 5 5 5 9 10 10 11 12 15 18 16 16 15 11 8 6 6 9 9 9 8 6 5 6 6 6 6 7 8 9 10 10 11 11 11 11 10 10 11 11 11 11 10 11 12 13 15 14 14 16 16 15 15 15 17 19 20 21
7 6 6 11 10 9 9 8 6 4 4 4 6 8 6 3 4 4 2 2 2 0 3 7 9 8 6 6 9 9 7 10 12 12 14 14 16 18 17 16 15 11 8 6 7 9 9 8 7 6 7 7 7 8 8 8 9 9 10 11 11 10 10 10 10 10 9 9 10 10 10 10 11 12 13 13 14 16 16 15 15 16 18 18 19 20
7 5 5 8 7 8 10 10 8 6 5 2 3 6 5 3 4 5 3 0 1 1 2 4 7 9 10 9 10 13 12 12 13 13 15 16 16 16 15 16 15 13 11 10 9 11 11 8 6 7 8 8 8 9 9 10 9 10 11 12 12 11 10 10 10 9 9 8 8 9 9 9 10 11 12 12 14 15 15 15 16 16 17 17 18 19
6 3 3 4 5 9 12 13 12 11 8 4 3 6 5 3 4 4 3 2 2 2 1 3 3 6 12 12 8 10 13 14 14 14 14 15 14 13 13 15 16 13 12 11 10 10 11 9 7 8 9 8 8 9 10 10 10 10 12 13 12 11 11 10 10 9 8 8 8 8 7 7 8 9 11 12 13 14 15 15 15 15 15 16 17 18
8 6 3 2 4 9 12 12 12 11 10 8 8 10 9 7 6 4 2 3 3 3 3 2 2 3 8 10 7 5 7 11 13 11 11 12 12 13 13 13 14 12 10 10 9 9 10 10 10 10 11 10 9 10 10 11 11 11 11 12 12 11 10 10 10 9 7 7 8 7 6 6 7 8 10 11 12 13 14 14 14 14 15 16 17 17
10 9 6 4 6 10 11 11 10 8 7 8 9 10 10 9 8 4 2 4 4 3 4 3 2 3 3 5 5 5 6 8 11 9 8 9 10 12 13 12 12 11 9 8 9 9 10 11 11 11 12 12 10 10 11 11 12 11 11 12 12 11 11 9 10 9 7 7 7 6 5 6 5 6 8 10 11 12 12 13 14 15 15 16 17 17
9 7 6 6 6 6 8 9 8 8 8 8 9 10 9 8 9 6 4 6 6 4 4 3 3 4 3 2 3 5 5 7 10 9 8 7 8 10 12 13 12 12 9 6 7 7 8 11 12 12 13 11 10 11 12 11 11 11 11 12 13 12 11 10 10 9 8 7 6 5 4 5 4 4 6 8 9 10 12 13 15 16 16 17 17 17
8 4 5 5 3 4 7 7 7 8 11 10 10 11 9 8 9 7 5 5 6 6 5 3 2 4 4 4 4 4 6 7 9 12 10 8 8 9 12 14 14 14 12 9 7 7 8 11 13 13 13 12 11 13 14 13 12 12 12 12 13 13 11 10 9 9 8 7 5 4 3 3 3 3 4 6 8 10 11 13 15 17 16 16 17 17
8 5 5 3 1 2 4 5 8 11 11 9 7 9 11 9 9 8 6 5 5 7 9 6 4 4 5 5 5 6 9 7 8 13 11 8 7 8 13 15 14 15 15 13 11 10 10 11 13 13 12 11 12 14 15 15 14 12 11 11 12 13 11 10 9 8 7 6 5 4 2 1 2 2 3 6 8 9 12 14 15 16 16 16 17 16
6 5 5 3 1 2 2 3 6 8 8 5 5 9 10 10 11 8 5 5 5 7 9 7 7 8 7 5 5 7 10 8 8 12 12 9 8 9 13 16 15 15 15 15 14 13 12 11 12 12 11 11 13 14 15 16 14 13 12 11 11 12 11 9 8 7 7 6 5 4 2 1 1 1 2 5 7 9 11 13 15 16 16 16 16 16
3 3 3 3 2 4 5 4 4 4 6 7 8 9 8 10 14 10 6 6 5 7 9 7 7 9 9 8 7 8 9 9 10 11 11 10 10 11 13 16 16 16 15 14 14 14 13 12 13 13 10 12 15 15 16 16 14 12 11 11 10 10 10 9 7 6 6 5 4 3 2 2 1 2 2 4 6 8 10 13 15 17 17 17 17 16
4 4 4 5 4 5 6 6 6 6 7 9 10 9 10 11 14 11 8 6 7 7 8 8 8 8 9 10 10 8 7 8 9 9 9 10 12 13 15 16 17 17 16 16 14 14 14 13 14 14 12 15 18 17 17 16 14 12 10 9 10 9 8 8 7 6 5 5 4 2 1 2 2 3 3 4 6 8 10 12 14 17 18 18 18 17
7 6 4 5 6 6 7 7 8 7 8 10 9 7 8 8 10 9 6 7 8 6 6 8 9 7 9 12 10 9 8 8 9 8 8 9 11 14 15 16 17 19 19 18 16 15 15 14 15 14 13 16 19 17 16 15 14 12 9 8 9 9 8 7 7 7 6 5 4 3 3 3 4 4 4 5 5 7 9 11 13 16 19 20 20 18
6 5 3 6 8 8 7 8 8 6 9 10 8 7 8 8 8 7 5 6 6 4 4 7 8 6 8 11 10 10 9 7 8 9 7 9 12 13 15 16 17 19 20 19 18 17 16 15 15 14 13 15 18 17 16 14 13 12 9 8 8 9 9 9 8 7 7 5 5 5 5 4 5 5 5 5 5 7 9 11 12 15 18 21 22 20
5 5 6 7 8 7 7 7 6 5 7 7 7 10 11 10 9 7 7 8 8 7 6 9 9 6 6 8 9 9 7 5 7 8 6 8 10 12 14 15 15 16 18 19 19 18 16 16 15 15 14 13 14 15 14 12 11 10 9 9 9 8 9 10 9 9 7 6 7 7 6 5 5 5 4 4 5 6 8 10 12 14 17 21 23 23
9 8 7 7 7 7 6 7 7 6 6 7 10 11 9 9 9 8 9 9 9 8 9 10 10 6 5 9 10 10 8 5 5 7 6 7 8 9 11 12 11 12 14 16 18 17 17 16 16 16 15 12 11 12 12 11 10 10 10 9 9 9 9 10 10 10 8 8 8 8 7 6 7 6 4 4 5 6 8 10 12 14 17 19 23 25
10 9 8 7 7 5 3 6 8 8 5 6 9 9 5 6 9 9 10 9 8 9 9 9 8 5 5 9 10 10 10 7 5 6 6 6 5 4 6 8 8 10 11 13 15 17 17 17 17 16 15 12 11 10 9 9 9 9 9 8 8 9 11 11 11 11 10 10 10 9 8 8 8 7 5 5 6 7 9 10 11 14 16 18 21 24
13 12 10 9 8 6 5 7 8 8 5 6 8 8 5 6 9 9 10 10 8 8 8 7 6 6 8 9 9 9 9 6 4 4 5 5 3 2 4 6 7 8 9 11 13 15 17 17 15 15 14 13 11 9 8 8 8 8 8 9 10 11 12 12 12 11 10 10 10 10 9 8 7 6 6 6 7 9 10 11 12 14 16 18 20 24
13 11 9 9 9 9 8 6 5 5 7 9 9 9 6 7 9 10 11 10 8 7 7 7 6 7 8 8 7 8 7 5 2 1 4 3 2 2 3 5 6 7 8 9 10 12 14 15 14 14 13 12 11 10 9 9 9 10 10 11 12 12 12 11 11 10 9 10 10 9 8 7 7 6 6 7 8 9 11 13 14 15 16 18 20 23
13 11 10 9 8 8 6 7 4 4 9 11 10 9 9 10 12 13 11 10 7 5 4 5 6 6 6 6 7 9 9 7 4 2 1 0 2 3 3 3 4 5 5 6 7 8 9 10 11 11 10 9 10 10 10 9 10 11 12 12 13 13 11 10 9 9 9 10 9 8 7 7 7 7 7 8 9 11 12 14 16 16 17 17 19 23
14 14 13 9 6 5 6 8 7 5 9 12 11 10 11 11 12 14 11 10 6 4 3 4 5 5 4 5 9 12 10 8 6 4 3 3 1 3 2 1 1 2 2 2 3 4 5 6 8 9 9 9 9 9 10 10 11 12 13 14 14 13 12 11 10 9 10 10 10 8 8 8 8 8 9 10 11 13 14 16 17 18 18 18 19 22
15 15 14 10 7 6 6 5 5 4 6 11 12 10 10 10 11 14 13 9 6 4 4 4 4 5 6 7 8 8 7 8 7 5 5 6 3 1 1 1 1 1 1 1 2 2 3 5 7 9 9 10 10 10 10 11 12 13 14 15 14 13 13 13 11 10 10 9 9 9 9 9 9 10 10 11 13 15 16 18 19 19 18 18 19 22
14 15 14 12 11 10 6 4 5 5 6 11 12 9 8 8 9 12 11 7 5 5 6 6 5 6 7 6 5 5 6 9 9 6 5 4 4 4 4 2 2 1 2 2 3 3 2 4 7 8 10 11 12 12 12 11 12 13 14 14 14 14 14 13 11 9 8 8 8 9 9 9 10 11 12 13 14 16 18 20 20 19 18 18 19 21
11 12 14 13 13 12 8 5 6 6 8 11 11 8 8 9 10 10 8 6 6 6 6 7 7 7 9 8 7 7 7 9 9 10 8 6 6 6 7 5 4 4 3 2 1 3 2 2 5 8 11 13 13 13 12 12 12 12 12 12 13 13 11 10 9 8 9 10 10 11 10 11 11 12 13 14 15 17 20 22 21 19 18 18 19 21
10 11 12 13 15 14 9 5 5 6 10 13 11 9 8 10 11 11 8 7 7 8 8 9 7 6 7 6 6 9 10 9 10 11 9 9 9 9 9 8 6 4 4 3 1 2 3 1 1 3 5 8 10 11 11 11 10 10 9 10 10 9 8 8 10 12 13 14 15 14 14 14 14 14 15 16 17 19 22 22 21 19 18 18 19 21
10 9 11 14 17 14 9 8 6 8 12 13 13 12 10 10 12 12 10 9 8 9 10 9 7 6 7 4 4 8 11 10 10 9 7 7 10 10 10 10 8 6 6 5 3 2 2 2 4 5 4 4 8 10 10 10 8 6 7 9 8 8 9 11 13 15 17 18 19 19 19 19 18 18 18 19 20 21 23 22 21 19 17 18 19 21
9 8 8 10 11 8 9 10 8 9 13 13 14 14 12 10 11 12 12 11 9 9 9 8 7 6 7 6 3 5 10 11 9 7 7 9 11 11 10 9 7 6 7 5 4 5 6 6 7 7 6 4 6 7 8 8 7 6 8 9 9 10 12 14 16 18 20 21 22 23 23 22 22 21 21 21 22 23 23 23 21 19 17 18 20 20
8 10 8 6 5 4 9 12 9 11 16 15 13 13 12 11 12 13 11 10 9 10 9 8 7 6 6 6 4 3 7 11 9 8 9 11 11 12 11 11 9 7 6 5 5 6 8 8 7 7 5 3 3 4 5 6 6 8 10 10 11 12 14 15 17 19 21 22 23 23 24 24 24 23 23 23 24 23 23 22 20 17 17 18 19 19
4 6 7 6 5 5 8 12 13 15 17 14 12 12 12 12 13 13 12 11 10 10 10 7 7 7 6 4 3 2 3 5 7 8 10 12 13 13 12 12 13 12 10 8 8 10 10 8 8 7 5 3 2 2 3 5 8 10 12 12 13 15 16 17 19 20 22 23 24 24 24 24 23 22 23 24 24 22 20 18 17 16 17 18 17 16
1 4 6 6 6 6 9 13 13 13 13 12 12 14 15 15 15 15 15 14 10 10 9 6 7 10 8 5 4 2 2 4 5 5 7 9 8 5 3 3 7 11 13 13 13 13 12 12 11 9 7 6 6 5 6 8 10 12 13 14 16 17 19 20 21 22 23 23 24 24 23 21 21 21 21 21 20 18 17 16 15 15 16 15 14 13
3 3 8 9 9 8 9 12 13 12 11 11 13 16 18 17 16 16 15 14 11 9 8 6 6 8 9 8 7 5 3 4 4 4 5 6 5 4 3 3 1 3 8 13 16 16 15 15 14 12 10 9 9 9 9 10 12 13 15 16 18 19 20 20 20 20 20 20 19 19 18 17 16 17 17 16 15 14 14 13 13 13 12 11 10 9
4 3 7 11 11 9 8 10 11 11 11 11 14 18 19 17 17 17 16 14 13 11 10 9 7 6 7 9 9 6 3 2 2 2 3 4 5 4 3 3 3 2 1 4 10 14 16 17 16 15 13 12 12 13 13 14 15 17 18 17 17 17 17 17 17 16 16 16 15 14 13 13 13 13 13 13 12 11 11 11 11 9 8 6 5 4
7 5 4 9 11 11 14 16 14 12 12 11 12 15 16 16 17 19 18 17 16 14 12 11 9 9 9 10 10 7 4 4 5 4 1 3 3 2 1 1 1 2 3 2 1 5 9 13 15 17 16 15 15 16 16 17 19 20 19 17 15 14 15 14 14 13 13 12 11 11 11 11 10 10 10 10 9 9 9 8 6 4 3 2 1 2
7 7 4 6 8 9 14 17 16 14 14 14 13 14 15 16 17 20 21 21 19 18 16 13 12 11 10 11 12 10 8 8 8 7 5 4 2 2 3 3 3 3 3 3 3 2 2 5 8 12 14 16 17 17 18 19 19 19 17 14 13 13 13 12 11 11 11 10 9 9 9 8 8 8 8 8 7 7 5 4 2 0 1 2 3 4
7 5 5 5 8 9 10 9 8 9 11 12 11 12 12 14 16 19 22 23 22 20 19 17 15 14 12 12 13 14 13 13 12 11 11 10 9 7 7 7 8 7 6 6 5 4 4 3 3 5 7 9 11 13 14 15 14 14 12 11 11 12 11 11 10 9 9 8 7 7 6 6 6 6 6 6 5 4 2 1 1 2 2 3 3 4
Wind_Direction
203 223 237 235 226 231 252 271 260 220 61 345 193 185 193 200 202 201 208 194 187 224 255 37 24 142 154 157 158 159 165 165 160 162 164 162 165 170 171 172 176 178 174 178 192 199 195 202 277 321 340 343 340 339 337 333 328 321 318 314 307 317 345 14 51 85 106 147 167 123 104 87 87 89 72 56 50 56 50 25 12 16 16 11 9 12
225 232 233 227 201 200 228 256 233 205 114 111 153 159 163 181 193 193 201 185 193 237 247 189 14 158 159 161 167 166 169 173 166 161 166 169 170 172 172 171 180 184 179 187 202 206 195 193 253 327 345 341 340 343 341 337 333 326 325 319 258 16 60 72 83 101 115 129 138 127 114 97 74 58 52 50 48 49 46 31 24 22 18 20 24 32
241 238 191 117 225 230 232 220 206 193 148 124 138 151 157 172 177 176 193 193 200 233 237 196 177 159 161 167 173 169 170 176 174 167 168 176 178 177 175 176 190 192 179 193 196 179 179 181 232 348 350 342 345 349 343 337 336 329 328 124 152 109 93 113 105 104 113 122 127 120 106 93 72 59 54 51 43 40 41 39 33 30 33 40 41 41
249 278 53 111 186 225 218 195 186 181 188 180 152 156 162 177 177 170 183 191 202 229 239 201 179 160 162 177 180 174 178 182 182 179 176 184 188 184 183 187 203 206 179 190 173 139 147 144 8 346 351 351 353 351 341 336 342 95 145 147 153 136 117 111 100 96 99 101 104 100 89 82 75 70 60 48 41 41 41 38 39 47 55 53 46 40
271 333 348 182 156 181 181 169 182 203 213 215 176 170 173 181 186 183 182 184 192 209 228 204 184 185 184 187 186 180 185 190 193 194 186 188 191 189 191 197 213 218 196 193 166 128 123 109 347 348 1 3 1 352 339 333 354 131 146 153 150 136 122 112 102 94 92 89 88 88 81 77 77 76 71 56 49 51 49 49 56 62 60 53 45 41
281 338 321 259 164 172 176 166 199 232 218 207 190 196 185 170 187 192 179 179 184 188 211 208 194 223 207 197 194 193 198 195 197 205 198 192 195 195 192 199 217 221 214 209 170 130 128 131 83 27 15 11 7 354 332 321 125 139 147 149 138 126 120 113 105 97 93 91 90 92 92 87 79 74 77 76 71 69 67 67 67 62 55 51 46 42
262 292 325 262 161 167 190 207 241 228 213 207 194 194 199 172 193 199 183 179 190 187 209 211 207 257 235 216 200 200 210 205 202 208 204 199 201 201 192 200 221 226 228 227 171 143 171 153 91 50 22 13 14 4 311 203 149 146 145 141 132 126 122 116 114 112 105 99 97 98 99 96 88 83 86 89 87 81 75 71 67 60 53 49 45 41
255 265 309 163 157 165 218 235 233 210 211 209 190 188 208 195 180 199 194 191 213 227 216 211 211 245 263 238 209 205 215 214 211 210 206 203 204 206 199 204 223 230 238 246 214 184 194 163 103 64 28 15 18 24 172 164 148 145 142 137 134 132 129 126 122 120 116 110 106 102 99 98 95 93 91 90 89 84 76 70 63 57 51 46 44 39
244 217 200 201 191 194 211 229 209 196 206 191 171 179 190 156 142 175 198 206 225 241 222 211 208 228 271 249 213 208 216 219 217 213 209 206 204 207 207 210 223 230 238 246 235 215 204 176 127 72 37 20 24 58 155 152 147 147 143 138 137 135 133 131 127 123 120 112 106 103 98 95 94 92 90 90 89 84 74 66 59 55 51 46 43 39
202 186 191 200 194 181 176 183 193 195 193 142 144 165 163 142 145 155 194 209 201 221 237 216 202 208 269 253 217 209 221 227 220 212 210 211 209 209 209 214 223 228 232 234 221 214 209 193 169 91 46 24 30 88 143 157 155 153 147 141 140 138 136 133 129 124 116 108 104 102 99 97 97 95 95 93 88 80 70 63 59 55 51 46 43 38
165 199 216 162 130 136 145 162 189 194 190 144 148 159 154 144 160 173 198 197 179 243 264 231 208 207 260 261 227 217 230 235 219 210 206 210 214 212 212 217 224 228 229 229 222 213 206 188 167 130 67 32 37 99 146 168 162 158 151 147 145 140 137 132 127 119 109 107 106 106 104 103 100 98 97 92 85 77 69 64 59 54 50 45 42 38
153 181 170 155 146 133 138 148 169 177 178 144 151 155 146 141 160 174 185 180 183 268 274 241 216 211 225 250 248 243 251 216 206 206 200 207 215 214 213 215 221 227 228 229 224 209 195 176 160 146 101 69 83 125 164 174 166 164 156 151 151 143 136 129 123 114 108 108 109 110 108 103 97 94 91 87 80 73 66 61 55 52 50 46 42 38
212 181 155 176 190 163 159 148 142 152 157 148 159 159 146 137 151 178 215 200 230 258 265 232 205 208 237 256 275 271 256 220 202 198 193 204 213 215 216 215 219 224 224 224 217 196 179 169 165 161 131 118 151 155 173 178 171 170 160 155 155 144 136 129 121 116 113 113 113 111 110 104 98 94 89 84 74 65 61 58 53 49 49 46 42 38
225 216 219 230 187 177 188 170 154 162 176 188 191 177 167 149 128 224 252 252 262 250 229 198 188 215 252 268 280 264 244 221 206 198 201 211 213 217 217 213 216 220 219 218 206 185 173 168 169 170 152 144 164 164 171 183 179 174 166 160 154 144 140 134 128 124 120 117 114 112 110 106 101 95 89 80 68 60 57 55 49 45 45 44 42 38
244 235 229 225 208 196 199 195 193 197 196 205 213 201 198 195 175 205 215 195 201 185 166 167 178 240 256 277 298 230 195 201 202 194 206 224 229 226 209 204 211 217 217 216 202 185 176 173 175 180 176 166 169 168 172 183 183 175 168 162 154 147 144 138 135 130 121 116 113 111 109 104 99 92 83 72 61 55 53 51 46 42 41 40 40 37
270 264 222 204 202 202 202 201 208 213 205 206 212 208 205 204 194 169 186 201 168 141 164 189 217 261 248 225 165 159 170 190 198 202 215 228 228 224 214 206 211 220 221 216 198 186 178 177 180 186 190 181 173 171 174 182 184 177 170 165 160 154 148 142 136 128 118 114 110 106 105 99 90 82 74 67 58 53 50 49 46 41 38 37 37 36
261 281 211 191 188 190 203 210 205 200 195 199 201 191 181 196 215 180 146 169 151 142 192 206 229 251 230 205 188 175 172 188 204 220 224 228 226 225 226 220 221 228 224 204 186 182 174 170 176 193 203 190 175 173 175 181 185 181 174 171 169 160 152 145 134 123 114 112 108 103 100 93 83 74 70 66 58 52 50 48 47 41 36 35 35 34
263 280 202 196 195 182 193 209 215 219 208 196 175 163 155 176 231 226 202 101 94 219 220 216 237 241 215 200 192 188 187 195 211 224 225 227 227 228 232 232 233 237 231 219 199 189 183 175 180 206 217 201 181 176 178 182 184 184 179 176 174 164 154 146 134 121 112 107 101 96 91 82 77 73 69 65 55 49 47 46 44 39 34 32 31 31
255 265 198 196 192 182 188 189 193 210 222 229 178 182 185 191 212 222 227 177 105 248 263 247 252 243 230 222 206 206 209 205 209 216 222 227 229 229 232 234 237 237 235 238 226 206 199 194 196 217 221 208 190 181 179 181 183 186 181 177 176 169 157 148 136 125 114 104 97 93 87 78 77 75 68 61 50 44 43 43 42 37 33 30 30 30
228 232 207 215 192 180 187 191 197 200 200 208 208 210 217 219 223 226 238 245 179 169 238 271 282 246 229 228 225 225 225 220 216 216 222 230 229 227 228 232 235 234 234 241 235 215 206 203 205 218 220 211 197 187 182 180 183 189 185 179 179 173 162 150 138 130 121 111 104 98 89 80 81 76 65 56 46 39 38 39 40 37 33 31 30 30
220 210 199 223 207 196 199 211 213 196 194 210 214 213 218 228 235 230 245 248 208 171 161 186 287 251 217 217 223 243 242 226 223 226 229 231 227 223 223 228 232 233 237 241 232 214 206 204 205 215 223 219 205 193 186 180 184 194 188 178 179 176 166 155 141 133 129 122 114 104 90 80 83 76 62 53 44 35 30 32 35 35 33 31 29 27
225 219 206 196 213 214 211 219 221 210 216 227 225 222 225 236 232 204 204 220 204 191 171 167 228 221 196 213 228 270 275 226 216 226 231 227 224 220 221 227 231 231 233 234 220 207 206 207 208 216 226 227 213 196 191 185 185 194 190 178 178 178 172 161 147 140 139 131 118 108 88 73 74 66 51 46 41 33 24 24 27 28 28 28 27 24
221 225 229 226 234 228 207 205 216 223 227 235 250 243 229 231 225 196 188 204 190 193 197 182 203 195 180 264 268 270 257 221 213 219 222 231 236 226 221 226 232 229 224 218 208 206 209 210 213 220 225 226 211 193 192 189 185 191 192 182 178 179 177 168 156 149 145 136 127 125 101 73 65 55 45 41 36 30 22 19 21 21 21 22 22 20
208 241 259 244 256 239 210 202 216 227 229 240 258 244 219 217 221 207 201 198 185 196 193 164 202 212 203 250 277 242 209 206 209 209 216 236 242 229 220 223 229 228 221 214 206 206 209 210 214 217 218 219 210 194 189 186 183 189 192 186 178 177 179 175 165 158 151 145 147 151 132 82 58 49 50 44 32 25 21 18 17 15 15 16 17 15
221 241 234 222 11 266 224 224 234 232 232 245 249 221 213 217 218 212 213 204 193 205 199 182 198 202 191 226 254 218 200 199 199 202 214 240 245 226 217 219 226 226 222 219 216 211 210 214 216 214 213 217 210 197 189 183 179 183 188 188 183 177 176 178 173 165 158 157 166 175 166 105 38 12 32 34 27 24 23 20 16 12 9 10 12 10
219 202 197 192 122 184 236 281 257 224 210 226 225 204 211 224 217 211 227 228 209 202 203 199 193 181 179 206 229 215 215 219 203 196 206 231 241 226 218 218 220 222 221 221 221 218 218 224 224 218 211 210 205 196 190 182 174 175 182 189 192 183 175 179 180 172 166 166 174 183 189 187 339 335 4 20 22 26 25 21 17 11 7 6 7 6
186 190 222 251 238 239 264 290 283 238 224 258 257 226 220 222 213 214 244 245 207 186 192 193 188 189 196 209 218 224 234 235 217 202 205 222 228 220 217 218 219 223 222 220 222 224 224 226 226 220 205 197 198 195 190 181 169 169 179 188 198 195 180 178 185 185 179 178 180 183 197 222 281 340 2 13 21 27 25 20 17 12 7 4 3 3
268 275 256 258 274 283 281 278 277 262 252 274 277 244 227 219 211 217 237 227 199 191 195 192 193 200 201 204 210 217 223 226 225 224 228 236 236 226 218 218 220 222 219 219 224 225 223 224 225 219 197 187 192 192 189 182 169 167 179 187 200 209 196 183 188 197 200 199 202 214 238 256 286 328 350 4 18 24 22 18 15 12 7 4 2 1
278 286 255 258 284 290 276 267 277 269 244 258 272 246 231 225 210 210 219 213 207 210 208 200 202 203 195 198 207 211 214 227 243 250 244 242 244 234 224 227 230 225 219 219 222 220 217 220 223 217 197 186 190 192 190 184 172 170 181 190 198 210 212 203 199 207 217 219 224 248 276 288 292 307 330 350 8 16 16 14 10 8 5 3 2 359
265 272 282 291 287 281 273 270 279 260 230 245 253 224 220 217 201 198 206 209 211 217 203 192 196 201 195 199 208 208 211 234 252 252 243 240 247 243 237 241 241 233 224 217 215 214 213 218 222 220 208 193 192 196 196 189 179 173 181 199 206 209 216 219 215 216 226 231 237 253 267 275 279 290 313 337 357 7 10 9 4 1 0 0 0 358
280 287 308 305 288 274 269 270 268 219 214 244 235 206 209 215 216 222 219 209 210 216 206 189 187 186 184 196 205 205 212 256 259 245 242 247 252 252 249 246 240 234 226 215 210 209 210 219 225 225 220 205 194 196 196 191 185 179 186 204 210 209 219 228 227 226 231 239 245 252 257 256 263 280 304 329 350 360 3 3 358 354 353 354 356 355
302 304 300 302 309 296 266 253 245 218 218 242 226 208 211 218 217 212 206 208 210 198 181 177 185 188 187 198 206 211 225 266 260 237 237 246 254 256 250 245 236 230 225 215 211 210 210 217 224 224 225 217 203 199 194 191 191 187 193 205 209 210 220 228 231 229 231 238 245 252 254 250 254 270 293 319 337 344 351 355 352 347 346 347 348 350
292 299 283 279 304 301 231 225 229 219 221 232 213 202 207 211 201 189 187 194 194 183 174 176 189 198 197 204 213 218 229 247 245 240 251 258 266 263 238 236 236 232 222 212 213 215 213 213 216 222 227 226 221 212 199 199 202 195 195 206 213 218 224 228 229 228 228 237 246 252 254 249 251 264 282 302 318 326 334 342 344 340 339 340 341 344
283 289 275 265 277 278 257 238 213 195 211 226 198 184 192 205 200 186 175 169 164 175 188 186 184 192 201 214 225 221 220 226 229 256 282 277 271 254 218 225 233 229 220 211 212 215 212 208 212 220 225 228 231 228 216 214 218 213 212 218 223 226 228 229 229 227 230 241 249 254 254 248 250 265 284 301 312 318 323 329 332 332 332 334 335 338
279 278 269 264 270 274 263 230 194 199 231 222 193 186 189 180 179 173 161 155 151 156 172 177 174 182 194 214 231 214 200 190 178 278 299 284 274 278 256 242 226 213 209 207 208 212 209 207 210 217 222 227 233 235 232 227 226 227 229 230 232 233 233 233 235 237 246 255 260 262 257 249 253 271 291 304 311 316 318 319 321 323 325 329 332 333
259 267 273 268 262 267 246 202 189 229 222 201 185 190 184 165 173 175 156 148 159 162 168 188 203 210 217 232 221 194 180 171 166 190 243 264 352 330 300 268 228 197 194 201 208 214 213 209 211 216 224 232 235 238 239 237 235 236 237 239 240 239 239 241 245 254 262 266 271 271 259 250 259 277 293 303 306 309 310 309 311 314 318 324 327 328
244 258 267 257 240 262 254 220 206 193 192 191 192 200 196 182 189 194 171 147 151 168 174 196 220 225 212 192 179 173 173 180 183 188 194 193 326 356 357 329 167 145 165 206 209 216 215 209 211 217 224 231 237 243 246 243 240 239 239 242 244 244 246 249 254 261 265 269 275 277 267 260 266 279 291 299 299 298 297 297 301 305 310 316 321 323
243 248 253 253 247 250 252 223 193 172 194 203 202 205 208 202 202 204 193 164 147 165 193 214 223 188 163 159 169 178 191 199 197 194 194 198 207 239 334 34 108 91 16 298 275 276 240 218 214 219 228 238 243 251 257 253 246 244 246 248 249 251 253 257 261 264 268 273 275 275 271 267 269 278 289 295 295 293 291 290 292 297 302 309 315 318
235 236 238 243 236 228 230 213 196 205 208 199 191 188 201 208 201 198 193 175 156 174 201 213 207 184 176 173 172 183 202 207 199 179 177 200 213 213 228 244 218 243 333 331 312 317 285 226 224 229 237 242 245 251 259 257 249 248 251 252 253 254 256 258 260 262 271 278 277 275 276 276 278 283 290 294 294 293 290 287 286 290 297 304 309 314
221 226 227 233 232 231 235 215 202 209 194 182 183 190 205 217 209 192 183 175 169 170 189 205 208 203 199 188 175 187 210 210 187 164 173 214 226 213 219 224 219 237 267 273 315 10 40 202 225 238 243 244 246 250 249 247 246 250 252 249 248 253 258 263 266 269 278 284 285 287 291 292 291 291 292 295 296 294 292 288 284 285 293 299 305 311
235 227 221 234 246 250 246 213 185 187 181 178 184 194 201 210 207 195 180 173 174 172 183 203 210 194 187 184 186 200 206 198 183 180 194 216 215 211 215 211 206 218 229 229 255 55 68 80 256 266 252 238 235 235 233 236 245 249 247 242 244 254 269 277 278 280 285 288 292 297 299 298 297 295 295 297 296 293 292 288 281 281 287 294 302 308
236 231 231 246 258 260 240 205 176 168 174 179 185 189 196 206 205 194 171 155 168 179 184 199 205 180 171 179 190 195 193 188 191 203 213 209 206 213 219 215 210 195 187 207 224 175 185 269 297 311 305 246 225 226 228 234 238 238 242 250 261 276 283 280 281 283 286 290 293 295 297 298 298 297 298 298 296 295 293 286 278 278 284 292 300 306
212 220 237 254 263 253 203 180 167 169 174 175 179 188 201 207 195 181 162 153 170 190 194 208 220 205 199 212 213 192 191 191 194 207 214 211 212 220 223 224 221 191 181 205 226 210 230 269 287 301 305 261 219 219 224 228 234 248 263 273 282 288 284 282 282 283 283 286 288 289 292 294 295 295 296 295 293 291 287 279 272 275 283 292 299 302
191 217 234 243 251 227 185 175 178 184 180 176 182 196 208 202 184 177 174 169 177 193 202 214 219 209 209 215 210 180 184 192 200 209 211 214 220 225 229 235 236 225 214 222 230 238 257 276 290 298 292 233 195 210 228 244 263 279 284 284 284 285 285 284 283 280 280 282 283 285 287 288 289 290 290 288 284 280 273 268 267 274 285 293 297 297
160 204 218 220 229 233 205 191 189 187 184 185 193 199 200 191 177 175 181 184 185 192 200 208 203 193 193 194 187 147 149 178 194 200 203 212 223 232 239 243 242 241 241 239 239 249 262 268 274 282 280 263 258 269 282 295 298 296 294 291 289 288 285 281 277 275 275 277 278 280 281 280 280 280 278 276 274 269 263 262 269 281 289 292 293 290
21 190 183 185 196 201 191 185 184 187 192 196 193 188 185 182 176 177 186 196 203 202 201 203 199 199 199 184 170 183 187 173 164 158 168 186 200 214 236 250 243 241 243 245 247 253 257 260 264 270 278 290 296 295 299 302 299 296 294 290 286 282 278 274 272 273 274 275 275 275 274 271 269 268 267 267 264 260 260 266 276 285 287 287 286 284
335 220 190 179 173 173 175 175 177 186 198 202 194 188 183 180 180 184 193 204 212 212 212 211 206 213 218 206 197 211 221 186 154 132 133 135 119 95 70 55 45 247 243 243 244 246 249 255 260 264 271 283 288 288 291 292 290 291 288 280 274 272 272 273 274 275 275 275 274 273 272 269 265 262 261 260 259 261 266 274 280 281 280 279 279 281
322 264 211 196 192 199 204 193 187 194 203 200 193 189 186 186 189 192 198 207 210 216 227 229 220 227 229 217 214 225 231 202 193 165 121 110 102 94 78 62 53 32 331 251 243 243 245 249 253 257 262 268 270 274 280 282 282 283 281 276 272 273 275 277 277 277 277 275 274 273 272 268 264 260 258 258 261 266 270 271 272 271 269 272 281 297
312 314 252 212 207 213 214 206 199 204 213 212 206 201 196 197 200 201 204 210 212 217 229 236 232 231 228 223 227 232 218 211 230 240 182 122 123 132 97 47 358 353 12 19 285 242 240 242 245 248 250 252 255 261 268 272 275 279 279 278 277 277 277 278 279 280 279 276 273 270 266 263 260 258 259 261 262 261 259 258 259 258 260 285 1 33
298 328 314 238 229 232 225 211 198 200 213 221 225 223 215 212 213 211 210 213 215 219 226 233 232 229 227 226 229 232 230 227 233 242 242 235 230 233 234 254 279 297 317 335 346 340 257 240 238 238 241 244 249 256 263 268 273 277 279 279 278 276 278 280 282 282 279 274 269 265 263 263 262 261 260 256 249 244 239 236 227 163 80 65 62 57
262 305 325 271 251 256 257 247 228 229 238 238 236 240 240 233 227 221 217 218 219 222 227 234 234 232 234 235 233 235 237 236 238 246 249 251 256 257 254 256 263 272 285 296 302 308 309 300 276 256 248 246 248 253 259 266 273 278 280 279 276 276 279 282 283 282 278 273 269 266 265 264 259 254 247 236 224 216 204 172 85 52 38 25 10 359
Height
3139 3140 3139 3139 3139 3139 3139 3140 3141 3141 3141 3140 3140 3140 3141 3141 3141 3141 3142 3143 3143 3143 3144 3144 3144 3143 3144 3144 3145 3145 3145 3146 3146 3147 3148 3148 3149 3150 3150 3151 3152 3152 3153 3154 3154 3153 3153 3153 3152 3152 3151 3151 3150 3149 3148 3147 3147 3146 3145 3145 3145 3145 3145 3145 3145 3146 3146 3145 3145 3145 3145 3145 3144 3144 3144 3144 3144 3144 3144 3142 3141 3141 3141 3140 3140 3140
3138 3138 3137 3137 3138 3139 3140 3141 3141 3141 3140 3140 3140 3140 3140 3141 3141 3141 3142 3142 3143 3143 3143 3144 3144 3144 3144 3144 3145 3145 3146 3146 3147 3147 3148 3149 3149 3150 3150 3151 3151 3152 3153 3153 3153 3153 3153 3153 3152 3152 3152 3151 3150 3148 3148 3147 3146 3146 3145 3145 3145 3145 3145 3145 3145 3146 3146 3145 3145 3145 3145 3145 3144 3144 3144 3144 3144 3144 3144 3143 3142 3141 3141 3141 3140 3140
3137 3137 3136 3137 3138 3139 3140 3140 3141 3141 3140 3140 3140 3140 3140 3140 3140 3141 3142 3142 3143 3143 3143 3144 3144 3144 3144 3145 3145 3146 3146 3147 3148 3148 3149 3149 3150 3150 3150 3151 3151 3151 3152 3152 3152 3153 3153 3153 3153 3152 3152 3151 3150 3148 3147 3147 3146 3146 3145 3145 3145 3145 3145 3145 3145 3146 3146 3146 3146 3146 3146 3145 3145 3145 3145 3145 3144 3144 3144 3143 3143 3142 3141 3141 3140 3139
3136 3136 3136 3137 3137 3138 3139 3140 3140 3140 3140 3140 3139 3139 3139 3139 3139 3140 3141 3142 3142 3142 3143 3143 3144 3144 3144 3145 3145 3146 3147 3148 3148 3148 3148 3149 3150 3150 3151 3151 3151 3151 3152 3152 3153 3153 3153 3153 3153 3152 3152 3151 3149 3148 3147 3147 3147 3146 3146 3145 3145 3145 3146 3145 3145 3146 3146 3146 3146 3146 3146 3146 3146 3146 3145 3145 3145 3144 3144 3143 3143 3143 3142 3141 3140 3139
3135 3134 3136 3137 3137 3137 3138 3139 3140 3140 3140 3140 3139 3139 3138 3138 3139 3139 3140 3141 3142 3142 3142 3143 3144 3144 3144 3144 3144 3145 3146 3147 3147 3147 3147 3148 3149 3150 3150 3150 3150 3151 3151 3152 3153 3153 3152 3153 3153 3153 3152 3151 3149 3148 3148 3147 3147 3146 3146 3146 3146 3146 3146 3146 3146 3146 3146 3147 3147 3147 3146 3146 3146 3146 3146 3145 3145 3144 3144 3144 3144 3143 3142 3141 3140 3139
3135 3134 3135 3136 3135 3136 3137 3138 3138 3139 3139 3139 3139 3139 3138 3138 3139 3139 3140 3141 3142 3142 3142 3142 3144 3144 3143 3143 3144 3145 3145 3145 3146 3146 3147 3148 3148 3148 3149 3149 3150 3150 3151 3151 3152 3152 3152 3153 3153 3153 3152 3151 3150 3149 3148 3148 3147 3147 3147 3146 3146 3146 3146 3147 3147 3147 3147 3147 3147 3147 3147 3147 3147 3147 3146 3146 3146 3146 3146 3145 3144 3143 3142 3142 3141 3140
3135 3135 3135 3135 3135 3136 3137 3137 3137 3137 3138 3138 3138 3138 3139 3138 3138 3139 3140 3140 3141 3142 3142 3142 3143 3143 3142 3142 3143 3143 3144 3144 3145 3145 3146 3147 3147 3147 3148 3149 3149 3149 3150 3151 3152 3152 3152 3153 3153 3153 3152 3151 3150 3150 3149 3148 3148 3147 3147 3147 3147 3147 3147 3147 3147 3147 3147 3148 3148 3148 3148 3148 3148 3147 3147 3147 3147 3147 3146 3145 3144 3144 3143 3142 3141 3140
3136 3135 3136 3136 3136 3136 3137 3137 3137 3137 3137 3137 3137 3138 3139 3138 3138 3138 3139 3140 3140 3141 3141 3141 3142 3142 3141 3140 3141 3142 3142 3143 3143 3143 3144 3145 3146 3146 3147 3148 3148 3149 3150 3150 3151 3152 3152 3153 3153 3153 3152 3151 3151 3150 3150 3149 3148 3148 3147 3147 3147 3147 3147 3147 3148 3148 3148 3148 3148 3148 3148 3148 3149 3149 3148 3148 3148 3147 3146 3146 3145 3144 3143 3142 3141 3140
3136 3136 3136 3136 3136 3136 3136 3137 3137 3137 3137 3137 3138 3139 3139 3139 3138 3138 3139 3140 3139 3140 3140 3140 3141 3141 3139 3137 3139 3140 3140 3140 3140 3141 3142 3143 3144 3145 3147 3147 3148 3149 3149 3150 3151 3152 3153 3153 3153 3152 3152 3151 3151 3150 3149 3149 3148 3148 3148 3148 3148 3148 3148 3148 3148 3148 3148 3148 3149 3149 3149 3149 3149 3149 3149 3149 3149 3148 3147 3146 3146 3145 3144 3142 3141 3140
3136 3136 3135 3135 3135 3135 3136 3137 3137 3137 3137 3137 3138 3139 3140 3140 3139 3139 3139 3139 3139 3139 3138 3138 3139 3140 3138 3135 3137 3138 3137 3137 3137 3139 3141 3142 3143 3144 3145 3146 3147 3148 3149 3149 3151 3152 3152 3153 3152 3152 3152 3151 3151 3150 3149 3149 3149 3148 3148 3148 3148 3149 3149 3149 3149 3149 3149 3149 3149 3150 3150 3150 3150 3150 3150 3150 3149 3148 3147 3147 3146 3145 3144 3142 3141 3140
3135 3135 3135 3135 3134 3134 3135 3135 3135 3137 3137 3136 3138 3139 3140 3141 3140 3140 3139 3139 3140 3139 3136 3136 3138 3139 3138 3134 3134 3135 3134 3133 3135 3137 3139 3140 3141 3143 3144 3145 3145 3147 3147 3149 3150 3151 3152 3152 3152 3152 3152 3151 3151 3150 3149 3149 3149 3149 3149 3149 3149 3149 3149 3149 3150 3150 3150 3150 3150 3150 3151 3151 3152 3151 3151 3151 3150 3149 3148 3148 3147 3145 3144 3142 3141 3140
3135 3135 3135 3134 3134 3134 3134 3134 3135 3136 3136 3136 3138 3138 3139 3141 3141 3141 3140 3140 3141 3138 3135 3135 3136 3139 3138 3133 3131 3132 3133 3133 3133 3135 3137 3138 3139 3141 3142 3143 3144 3145 3146 3148 3149 3150 3151 3152 3152 3152 3152 3152 3151 3150 3150 3150 3150 3150 3150 3150 3150 3150 3150 3150 3150 3150 3150 3151 3151 3151 3152 3152 3152 3152 3152 3151 3150 3150 3148 3147 3146 3145 3144 3142 3141 3140
3135 3135 3135 3135 3134 3134 3133 3134 3135 3136 3136 3136 3137 3137 3139 3141 3142 3142 3142 3141 3140 3137 3135 3135 3136 3137 3134 3130 3130 3131 3132 3133 3133 3134 3136 3137 3138 3139 3141 3142 3143 3144 3145 3147 3148 3149 3151 3151 3151 3152 3152 3152 3152 3151 3150 3150 3150 3150 3150 3150 3151 3151 3151 3151 3151 3151 3151 3152 3152 3152 3152 3152 3152 3152 3152 3151 3150 3150 3148 3146 3146 3145 3144 3143 3142 3140
3134 3134 3134 3134 3135 3134 3134 3134 3135 3136 3136 3136 3136 3136 3137 3139 3142 3142 3141 3140 3139 3136 3135 3135 3136 3135 3132 3129 3129 3129 3129 3131 3133 3134 3135 3137 3138 3139 3140 3141 3143 3144 3144 3146 3148 3148 3150 3151 3151 3151 3151 3152 3152 3151 3150 3150 3151 3151 3151 3151 3151 3151 3152 3152 3152 3152 3152 3153 3153 3153 3153 3153 3153 3153 3152 3151 3150 3149 3147 3146 3146 3145 3144 3143 3142 3141
3133 3133 3133 3133 3134 3134 3133 3134 3134 3135 3135 3135 3135 3135 3135 3136 3137 3138 3138 3137 3136 3135 3136 3137 3136 3133 3130 3129 3128 3128 3129 3130 3132 3133 3134 3136 3138 3139 3140 3141 3142 3143 3144 3145 3146 3148 3149 3150 3151 3151 3151 3152 3151 3151 3150 3151 3151 3151 3151 3151 3152 3152 3153 3153 3153 3153 3153 3153 3153 3153 3153 3153 3153 3152 3151 3150 3149 3148 3147 3146 3145 3145 3144 3143 3142 3140
3132 3131 3131 3132 3132 3133 3133 3133 3134 3134 3134 3134 3134 3134 3134 3134 3133 3134 3135 3134 3134 3135 3136 3136 3134 3131 3129 3129 3128 3128 3128 3129 3130 3132 3133 3135 3136 3138 3139 3140 3141 3142 3143 3144 3145 3147 3148 3150 3150 3150 3151 3152 3151 3150 3150 3151 3151 3151 3151 3152 3152 3152 3153 3153 3153 3153 3153 3152 3152 3152 3152 3152 3152 3150 3149 3148 3148 3147 3146 3146 3146 3145 3144 3143 3142 3140
3131 3130 3130 3130 3131 3132 3132 3133 3133 3133 3133 3133 3133 3133 3133 3133 3133 3133 3134 3134 3134 3135 3134 3133 3131 3130 3129 3129 3128 3128 3128 3128 3129 3130 3131 3133 3135 3136 3137 3138 3139 3141 3142 3143 3145 3147 3148 3149 3149 3150 3151 3151 3151 3150 3150 3151 3151 3151 3151 3152 3152 3152 3153 3153 3153 3153 3152 3152 3152 3152 3152 3151 3150 3149 3148 3148 3148 3148 3147 3146 3146 3145 3144 3143 3142 3141
3130 3130 3129 3129 3130 3131 3131 3132 3132 3132 3132 3132 3132 3132 3132 3133 3133 3133 3133 3134 3135 3135 3133 3131 3130 3129 3129 3128 3128 3128 3128 3127 3128 3129 3130 3132 3133 3134 3135 3137 3138 3139 3141 3143 3145 3147 3148 3148 3149 3149 3150 3151 3150 3150 3150 3150 3151 3151 3151 3152 3152 3153 3153 3153 3153 3152 3152 3151 3151 3151 3151 3150 3150 3149 3149 3149 3149 3148 3147 3147 3146 3145 3144 3143 3142 3140
3130 3130 3129 3129 3130 3130 3131 3131 3131 3132 3132 3132 3132 3132 3132 3132 3132 3132 3133 3133 3134 3135 3133 3130 3129 3129 3128 3127 3127 3126 3126 3127 3127 3128 3129 3130 3131 3133 3134 3135 3136 3138 3140 3142 3143 3146 3147 3147 3148 3149 3149 3150 3150 3149 3149 3150 3150 3150 3151 3151 3152 3152 3152 3152 3152 3152 3151 3151 3150 3150 3150 3150 3150 3150 3149 3149 3148 3148 3147 3146 3145 3145 3144 3143 3142 3140
3129 3129 3129 3129 3129 3130 3130 3130 3130 3130 3131 3131 3131 3131 3131 3131 3131 3131 3131 3130 3131 3133 3133 3131 3129 3127 3126 3126 3126 3125 3126 3126 3127 3128 3128 3129 3129 3131 3133 3134 3135 3136 3138 3140 3142 3144 3146 3147 3148 3148 3149 3149 3149 3149 3149 3149 3149 3149 3150 3150 3151 3152 3152 3152 3151 3151 3151 3151 3151 3150 3150 3151 3150 3150 3149 3149 3148 3148 3147 3147 3146 3145 3145 3143 3142 3141
3129 3129 3128 3128 3129 3129 3129 3129 3129 3129 3130 3130 3130 3130 3129 3130 3130 3130 3130 3130 3129 3131 3132 3131 3129 3126 3125 3125 3125 3125 3126 3126 3126 3127 3128 3129 3129 3130 3132 3133 3134 3135 3137 3139 3141 3143 3144 3146 3147 3148 3148 3148 3148 3148 3148 3148 3148 3149 3149 3149 3150 3151 3151 3151 3151 3151 3151 3151 3150 3150 3150 3150 3150 3150 3149 3149 3148 3148 3148 3147 3146 3146 3145 3143 3142 3141
3128 3128 3128 3128 3128 3128 3128 3128 3128 3129 3129 3128 3128 3128 3128 3129 3129 3129 3130 3130 3129 3128 3129 3129 3128 3125 3124 3125 3125 3125 3125 3125 3125 3126 3127 3128 3129 3129 3131 3132 3133 3135 3137 3139 3140 3142 3143 3144 3146 3147 3147 3147 3147 3147 3147 3147 3147 3148 3148 3148 3149 3150 3150 3150 3150 3150 3150 3150 3150 3150 3150 3150 3150 3149 3149 3149 3149 3149 3148 3148 3146 3145 3144 3142 3141 3140
3127 3128 3127 3127 3127 3127 3127 3128 3128 3128 3128 3128 3128 3128 3128 3128 3128 3128 3129 3128 3128 3127 3127 3127 3126 3125 3124 3124 3123 3124 3124 3124 3125 3126 3126 3127 3128 3129 3130 3131 3133 3134 3137 3138 3139 3141 3142 3143 3145 3145 3146 3146 3146 3146 3146 3146 3146 3147 3148 3148 3148 3149 3150 3150 3149 3149 3149 3149 3149 3149 3149 3150 3150 3150 3150 3149 3149 3149 3148 3147 3146 3144 3143 3142 3140 3140
3126 3127 3126 3126 3126 3126 3126 3127 3128 3128 3128 3127 3126 3127 3127 3127 3127 3127 3127 3127 3127 3127 3126 3127 3126 3125 3124 3123 3123 3123 3123 3124 3125 3125 3126 3127 3128 3128 3129 3130 3131 3133 3136 3137 3138 3140 3141 3142 3143 3144 3144 3145 3145 3145 3145 3145 3145 3146 3147 3147 3148 3148 3149 3149 3149 3148 3148 3148 3149 3149 3149 3150 3150 3150 3150 3149 3149 3148 3148 3146 3145 3144 3143 3142 3140 3139
3125 3126 3126 3126 3126 3126 3126 3127 3127 3127 3127 3126 3125 3126 3126 3126 3126 3126 3126 3126 3126 3126 3126 3126 3126 3125 3124 3123 3123 3123 3123 3124 3125 3126 3126 3127 3127 3128 3128 3129 3130 3132 3134 3136 3137 3138 3140 3140 3141 3142 3143 3143 3144 3144 3144 3144 3144 3145 3146 3147 3147 3147 3148 3148 3148 3148 3148 3148 3148 3149 3149 3150 3150 3150 3149 3149 3148 3147 3146 3145 3144 3144 3143 3142 3140 3139
3124 3124 3125 3125 3125 3126 3127 3126 3125 3125 3125 3125 3125 3125 3125 3125 3125 3125 3125 3125 3125 3125 3125 3125 3125 3124 3124 3123 3123 3123 3123 3124 3124 3126 3126 3126 3126 3127 3128 3128 3129 3130 3132 3134 3135 3137 3138 3139 3140 3141 3142 3142 3142 3143 3143 3143 3143 3144 3145 3146 3147 3147 3147 3147 3148 3147 3147 3148 3148 3148 3149 3150 3150 3149 3149 3148 3147 3147 3146 3145 3144 3143 3142 3141 3140 3139
3123 3123 3124 3124 3124 3125 3125 3125 3124 3124 3124 3124 3124 3124 3124 3124 3124 3124 3124 3124 3124 3124 3124 3124 3123 3124 3123 3123 3123 3123 3123 3123 3123 3124 3125 3125 3125 3126 3127 3127 3128 3129 3130 3132 3134 3135 3136 3137 3138 3139 3140 3140 3141 3141 3142 3142 3142 3143 3144 3145 3146 3146 3146 3146 3146 3147 3147 3147 3147 3148 3149 3149 3149 3149 3148 3147 3147 3146 3145 3144 3144 3143 3142 3141 3140 3139
3122 3122 3123 3123 3123 3123 3123 3123 3124 3124 3124 3124 3123 3122 3123 3123 3123 3123 3122 3123 3123 3123 3123 3123 3123 3123 3123 3122 3122 3122 3122 3122 3122 3123 3123 3124 3124 3125 3125 3126 3126 3127 3129 3130 3132 3133 3135 3136 3136 3137 3138 3139 3139 3140 3141 3141 3141 3142 3143 3144 3145 3145 3145 3145 3145 3146 3146 3146 3146 3147 3148 3149 3148 3148 3147 3147 3146 3145 3145 3144 3143 3142 3142 3141 3140 3138
3121 3121 3122 3122 3122 3122 3122 3122 3122 3122 3123 3123 3122 3121 3122 3122 3122 3122 3122 3122 3122 3122 3122 3122 3122 3122 3122 3122 3122 3122 3122 3121 3121 3121 3123 3123 3123 3123 3124 3125 3125 3126 3127 3128 3130 3132 3133 3134 3134 3135 3137 3138 3138 3139 3140 3140 3140 3140 3141 3143 3143 3144 3144 3144 3144 3145 3145 3145 3145 3146 3147 3147 3147 3147 3146 3146 3145 3145 3144 3143 3143 3142 3141 3140 3139 3138
3121 3121 3121 3121 3121 3121 3121 3121 3121 3121 3121 3121 3121 3121 3121 3121 3121 3121 3121 3121 3121 3121 3121 3121 3121 3121 3121 3121 3121 3122 3122 3122 3121 3121 3122 3122 3122 3122 3123 3123 3124 3124 3125 3127 3128 3130 3131 3132 3133 3134 3135 3136 3137 3138 3139 3139 3139 3139 3140 3141 3142 3143 3143 3143 3144 3144 3144 3144 3145 3145 3146 3146 3146 3146 3146 3145 3145 3144 3143 3143 3142 3141 3141 3140 3138 3137
3120 3120 3120 3120 3119 3119 3119 3119 3119 3119 3120 3120 3120 3120 3120 3120 3120 3120 3120 3121 3121 3120 3121 3121 3121 3120 3121 3121 3121 3121 3122 3121 3120 3120 3121 3121 3121 3121 3122 3122 3122 3123 3124 3125 3127 3128 3130 3131 3131 3132 3133 3134 3136 3137 3137 3138 3138 3138 3139 3140 3141 3142 3142 3142 3143 3143 3143 3144 3144 3145 3145 3145 3146 3146 3145 3145 3144 3143 3142 3142 3141 3141 3140 3139 3138 3136
3120 3119 3119 3119 3119 3118 3118 3118 3118 3118 3119 3119 3119 3119 3119 3119 3119 3119 3119 3119 3120 3119 3119 3120 3120 3120 3119 3120 3120 3120 3121 3121 3120 3120 3120 3120 3120 3120 3120 3121 3121 3122 3123 3124 3126 3127 3128 3129 3130 3130 3131 3133 3134 3135 3136 3136 3136 3136 3137 3139 3140 3141 3141 3142 3142 3142 3143 3143 3143 3144 3144 3145 3145 3145 3145 3144 3143 3142 3141 3141 3140 3140 3139 3138 3137 3135
3119 3119 3119 3119 3118 3117 3117 3117 3117 3117 3118 3118 3118 3118 3118 3118 3118 3118 3118 3118 3119 3119 3118 3119 3119 3119 3119 3119 3119 3120 3120 3120 3120 3119 3119 3120 3120 3119 3119 3120 3120 3121 3122 3122 3124 3125 3126 3127 3128 3129 3131 3132 3133 3134 3134 3134 3135 3136 3137 3138 3139 3139 3140 3141 3141 3142 3142 3142 3143 3143 3143 3144 3144 3144 3143 3142 3142 3141 3140 3139 3139 3138 3138 3137 3136 3135
3118 3118 3118 3118 3118 3117 3117 3117 3117 3117 3118 3117 3117 3117 3117 3117 3117 3117 3117 3118 3118 3118 3118 3118 3118 3118 3118 3118 3118 3118 3119 3119 3119 3119 3119 3119 3119 3119 3119 3119 3119 3120 3120 3121 3123 3124 3126 3127 3128 3129 3130 3131 3132 3132 3133 3133 3133 3135 3136 3137 3138 3138 3139 3140 3140 3141 3141 3141 3141 3142 3142 3142 3142 3142 3141 3141 3140 3139 3139 3138 3138 3137 3137 3136 3135 3134
3117 3117 3117 3117 3117 3116 3116 3116 3117 3117 3116 3116 3116 3116 3116 3116 3117 3117 3117 3117 3117 3117 3117 3117 3117 3117 3118 3118 3117 3118 3118 3118 3119 3119 3118 3118 3119 3119 3119 3119 3119 3120 3120 3121 3123 3124 3125 3126 3127 3128 3129 3130 3130 3131 3131 3131 3132 3133 3134 3135 3136 3137 3137 3138 3139 3139 3139 3139 3140 3140 3140 3140 3140 3140 3140 3139 3138 3138 3137 3137 3136 3136 3135 3134 3133 3132
3115 3115 3116 3116 3116 3116 3115 3116 3116 3116 3114 3115 3115 3116 3116 3116 3116 3116 3116 3117 3117 3117 3117 3117 3116 3116 3117 3117 3117 3118 3118 3118 3118 3118 3118 3118 3119 3119 3119 3119 3119 3120 3121 3122 3123 3124 3125 3125 3126 3127 3128 3129 3129 3129 3129 3130 3131 3132 3133 3134 3134 3135 3136 3136 3137 3137 3137 3138 3138 3138 3138 3138 3138 3138 3138 3137 3136 3136 3136 3135 3135 3135 3134 3132 3131 3130
3114 3114 3115 3115 3115 3115 3115 3114 3114 3114 3113 3114 3115 3115 3115 3115 3115 3115 3116 3117 3117 3117 3117 3116 3116 3116 3116 3116 3117 3117 3118 3118 3118 3118 3118 3119 3119 3119 3119 3119 3119 3120 3121 3121 3122 3123 3123 3124 3125 3126 3127 3127 3127 3128 3128 3129 3130 3131 3131 3132 3133 3134 3134 3134 3135 3136 3136 3136 3136 3136 3136 3136 3136 3136 3136 3135 3135 3134 3134 3134 3134 3133 3132 3131 3130 3129
3112 3112 3113 3114 3114 3114 3114 3113 3113 3114 3113 3113 3113 3114 3114 3114 3114 3115 3116 3116 3117 3116 3116 3116 3116 3116 3116 3116 3117 3117 3117 3117 3117 3117 3118 3118 3118 3119 3119 3119 3119 3120 3120 3121 3121 3121 3122 3122 3123 3125 3125 3126 3126 3127 3127 3128 3128 3129 3129 3130 3131 3131 3132 3132 3133 3133 3133 3133 3134 3134 3134 3134 3134 3134 3133 3133 3133 3133 3132 3132 3132 3131 3130 3129 3128 3127
3111 3111 3112 3113 3113 3114 3113 3113 3113 3113 3112 3112 3113 3114 3114 3114 3114 3114 3116 3116 3116 3116 3116 3116 3116 3117 3117 3117 3117 3117 3117 3117 3117 3117 3117 3117 3117 3118 3119 3119 3119 3119 3120 3120 3121 3121 3121 3121 3122 3123 3124 3125 3125 3126 3126 3127 3127 3127 3127 3128 3128 3129 3129 3130 3131 3131 3132 3132 3132 3132 3132 3132 3132 3132 3131 3131 3131 3131 3130 3130 3129 3129 3128 3127 3126 3125
3109 3110 3111 3111 3112 3112 3112 3112 3111 3111 3111 3112 3113 3113 3114 3114 3114 3114 3115 3115 3115 3116 3116 3116 3116 3116 3117 3117 3117 3117 3117 3117 3117 3117 3117 3117 3117 3117 3118 3119 3119 3120 3120 3120 3120 3120 3120 3121 3122 3122 3123 3123 3124 3125 3125 3125 3126 3126 3126 3127 3127 3127 3128 3129 3129 3130 3130 3130 3130 3130 3130 3130 3130 3130 3130 3129 3129 3129 3128 3128 3127 3126 3126 3125 3124 3123
3107 3108 3109 3110 3111 3111 3111 3110 3110 3110 3110 3111 3112 3113 3113 3114 3114 3114 3114 3114 3115 3115 3116 3116 3116 3116 3116 3117 3117 3117 3117 3117 3117 3117 3117 3117 3117 3117 3118 3119 3119 3120 3120 3120 3120 3120 3120 3121 3121 3122 3122 3122 3123 3124 3124 3124 3125 3125 3126 3126 3127 3127 3127 3127 3127 3127 3127 3127 3127 3127 3127 3127 3127 3127 3127 3127 3127 3127 3126 3125 3124 3124 3123 3123 3122 3121
3106 3107 3108 3109 3110 3110 3110 3109 3110 3110 3110 3110 3111 3112 3112 3113 3112 3113 3113 3114 3115 3115 3115 3115 3115 3115 3116 3116 3116 3116 3116 3117 3117 3117 3117 3117 3117 3117 3118 3118 3119 3119 3119 3120 3120 3120 3121 3121 3121 3122 3122 3122 3122 3123 3123 3124 3124 3125 3125 3125 3125 3126 3126 3126 3125 3125 3125 3124 3124 3124 3124 3124 3124 3125 3125 3124 3124 3124 3123 3122 3122 3122 3121 3120 3120 3119
3105 3107 3108 3109 3109 3109 3108 3108 3109 3109 3109 3110 3110 3111 3111 3112 3112 3112 3113 3114 3115 3115 3115 3115 3115 3115 3115 3116 3116 3116 3116 3116 3117 3117 3116 3116 3117 3117 3117 3117 3117 3118 3118 3119 3119 3120 3120 3120 3120 3121 3121 3121 3121 3121 3122 3123 3123 3124 3124 3123 3124 3124 3124 3124 3123 3123 3122 3122 3121 3121 3121 3121 3121 3121 3121 3121 3121 3121 3120 3120 3119 3119 3119 3118 3117 3116
3104 3106 3107 3108 3107 3107 3107 3107 3107 3108 3108 3109 3110 3110 3110 3111 3111 3112 3112 3113 3114 3115 3115 3115 3115 3115 3115 3115 3115 3116 3116 3116 3116 3116 3116 3116 3116 3116 3116 3116 3117 3117 3117 3118 3118 3119 3119 3119 3119 3119 3120 3120 3120 3120 3121 3121 3121 3121 3121 3121 3122 3121 3121 3121 3121 3120 3120 3119 3119 3119 3119 3119 3119 3119 3119 3119 3118 3118 3118 3117 3117 3117 3116 3115 3114 3113
3105 3105 3105 3106 3106 3106 3105 3105 3105 3106 3107 3108 3109 3109 3110 3110 3110 3111 3112 3113 3113 3114 3114 3114 3114 3114 3114 3115 3115 3115 3115 3115 3116 3116 3116 3116 3116 3115 3115 3115 3115 3116 3116 3116 3117 3117 3117 3117 3118 3118 3119 3119 3119 3119 3119 3119 3119 3119 3119 3119 3119 3119 3119 3118 3118 3118 3117 3117 3117 3117 3116 3116 3116 3116 3116 3116 3115 3115 3115 3115 3114 3114 3113 3112 3112 3111
3105 3106 3105 3105 3105 3105 3104 3104 3105 3106 3107 3108 3108 3109 3109 3109 3110 3111 3112 3112 3112 3113 3113 3113 3113 3114 3114 3114 3115 3115 3115 3115 3115 3115 3115 3115 3115 3115 3115 3115 3114 3114 3114 3115 3115 3115 3116 3116 3117 3117 3117 3117 3118 3118 3118 3118 3118 3118 3117 3117 3117 3117 3117 3116 3116 3115 3115 3114 3114 3113 3113 3113 3112 3113 3113 3112 3112 3112 3112 3112 3111 3111 3110 3109 3109 3108
3105 3106 3105 3105 3104 3104 3104 3104 3104 3105 3106 3108 3109 3109 3109 3109 3109 3110 3111 3111 3112 3112 3113 3113 3113 3114 3114 3114 3114 3114 3114 3114 3114 3114 3115 3115 3115 3115 3114 3114 3114 3114 3114 3114 3114 3114 3114 3114 3115 3115 3116 3116 3116 3116 3116 3116 3116 3116 3116 3115 3115 3114 3114 3113 3113 3112 3111 3111 3110 3110 3109 3109 3109 3109 3109 3109 3110 3110 3109 3109 3108 3108 3107 3107 3106 3106
3104 3105 3105 3104 3104 3104 3104 3104 3104 3105 3106 3107 3108 3108 3109 3109 3109 3109 3110 3110 3111 3112 3112 3112 3113 3113 3113 3113 3113 3113 3113 3113 3113 3114 3114 3114 3114 3114 3114 3114 3114 3114 3113 3113 3113 3113 3113 3113 3113 3114 3114 3115 3115 3115 3115 3115 3115 3114 3114 3113 3112 3112 3111 3110 3110 3109 3108 3108 3107 3107 3106 3106 3107 3107 3107 3107 3107 3107 3107 3106 3106 3105 3105 3104 3104 3103
3102 3103 3104 3104 3105 3104 3104 3103 3103 3104 3105 3106 3106 3107 3108 3108 3108 3109 3109 3110 3110 3111 3111 3112 3112 3112 3112 3112 3112 3112 3113 3113 3112 3113 3114 3114 3114 3114 3114 3114 3113 3113 3113 3113 3112 3112 3112 3112 3112 3112 3113 3113 3113 3113 3114 3113 3113 3112 3111 3110 3110 3109 3108 3108 3107 3106 3106 3105 3105 3105 3105 3105 3105 3105 3105 3105 3105 3105 3104 3104 3104 3103 3103 3102 3102 3102
3102 3102 3102 3104 3105 3104 3102 3101 3101 3102 3103 3104 3105 3106 3107 3107 3108 3108 3108 3109 3110 3110 3111 3111 3111 3111 3111 3112 3112 3112 3112 3112 3112 3112 3112 3113 3113 3113 3113 3113 3112 3112 3112 3112 3112 3112 3111 3111 3111 3111 3111 3112 3112 3112 3112 3111 3110 3109 3109 3108 3107 3107 3106 3106 3105 3104 3104 3104 3103 3103 3103 3103 3103 3103 3103 3103 3103 3103 3103 3102 3102 3102 3101 3101 3100 3100
3102 3102 3101 3102 3103 3102 3101 3099 3099 3100 3102 3102 3103 3104 3105 3106 3106 3106 3107 3108 3109 3109 3110 3110 3110 3110 3110 3110 3110 3110 3110 3111 3111 3111 3111 3111 3111 3111 3111 3111 3111 3111 3111 3112 3112 3111 3111 3111 3110 3110 3110 3110 3110 3110 3109 3109 3108 3107 3107 3106 3106 3105 3104 3104 3104 3103 3103 3102 3102 3102 3102 3102 3102 3102 3102 3102 3101 3101 3101 3101 3101 3100 3100 3099 3099 3099